Weather in Borisoglebka

Russia / Amur Oblast     50°02′16″N   128°36′40″E
temp.,
°C
wind,
m/s
gust,
m/s
humid.,
%
clouds,
%
prec.,
mm/h
press.,
hPa
HPBL,
m
18 april, sun
sun1800:00+2sw34885 0.0 101353
03:00+1ssw34880 0.0 101247
06:00+1ssw33840 0.0 101349
09:00+6s45610 0.0 1012361
12:00+10ssw56540 0.0 1010832
15:00+12ssw56410 0.0 10081185
18:00+11s34505 0.0 1006115
21:00+7s34640 0.0 100744
19 april, mon
mon1900:00+5s33680 0.0 100638
03:00+4s33715 0.0 100532
06:00+3ssw33705 0.0 100430
09:00+6nnw1012636 0.0 1006772
12:00+5nnw101256100 0.0 10091088
15:00+7nnw1114270 0.0 10091844
18:00+5nnw1015280 0.0 10121981
21:00+1nnw1016320 0.0 10151319
20 april, tue
tue2000:00−1nw818370 0.0 10161592
03:00−1nw919360 0.0 10161440
06:00−2nw1018340 0.0 10171309
09:00+1nw1016220 0.0 10181468
12:00+5nw913180 0.0 10181672
15:00+8nw710163 0.0 10161577
18:00+9wnw36245 0.0 1016286
21:00+5ssw22332 0.0 101710
21 april, wed
wed2100:00+3sse45425 0.0 101760
03:00+2sse45520 0.0 101665
06:00+2sse47600 0.0 101698
09:00+10ssw58410 0.0 1015367
12:00+17ssw67270 0.0 10151019
15:00+20ssw68230 0.0 10131365
18:00+19s48300 0.0 1012203
21:00+13sse454230 0.0 101362
22 april, thu
thu2200:00+11sse410454 0.0 1013134
03:00+10se512495 0.0 1013173
06:00+9se613520 0.0 1013217
09:00+16s812375 0.0 1013693
12:00+21ssw9132644 0.0 10141270
15:00+22sw9122788 0.0 10141888
18:00+20sw81138100 0.0 10161036
21:00+15wsw51252100 0.0 1019256